Location: Moscow
(38.8570°N, 84.2291°W)
Time: 18:20:51
(UTC+00:00)

SKYMED 2 - Pass Details

Date: 15 November 2025
Orbit: 621 x 623 km, 97.9° (Epoch: 12 December)

Event Time Altitude Azimuth Distance (km) Brightness Sun altitude
Rises 23:37:35 0° 13° (NNE) 2,909 6.8 -14.6°
Reaches altitude 10° 23:39:47 10° 14° (NNE) 1,998 5.9 -15.1°
Maximum altitude 23:44:09 82° 102° (ESE) 633 3.5 -15.9°
Drops below altitude 10° 23:48:28 10° 190° (S) 1,982 6.4 -16.7°
Sets 23:50:38 0° 192° (SSW) 2,884 7.3 -17.1°
